Regional Weather Roundup
Issued by NWS

Home | Current Version | Previous Version | Graphics & Text | Print | Product List | Glossary On
Versions: 1 2 3 4 5 6 7 8 9 10 11 12 13 14 15 16 17 18 19 20 21 22 23 24 25 26 27
000
ASUS45 KCYS 191510
RWRWY

WYOMING REGIONAL WEATHER ROUNDUP
NATIONAL WEATHER SERVICE CHEYENNE WY
900 AM MDT SAT MAY 19 2018

NOTE:  "FAIR" INDICATES FEW OR NO CLOUDS BELOW 12,000 FEET
WITH NO SIGNIFICANT WEATHER AND/OR OBSTRUCTIONS TO VISIBILITY.

WYZ001-191600-
YELLOWSTONE NATIONAL PARK

CITY           SKY/WX    TMP DP  RH WIND       PRES   REMARKS
LK YELLOWSTONE   N/A     40  32  73 E3        30.18S
W YELLOWSTONE  NOT AVBL

$$
WYZ002>013-054>058-071-098>099-191600-
NORTHERN WYOMING

CITY           SKY/WX    TMP DP  RH WIND       PRES   REMARKS
JACKSON        FAIR      47  38  71 VRB3      30.13S
CODY           CLOUDY    41  35  79 NW3       30.22S
GREYBULL       CLOUDY    47  39  74 W10       30.19R
WORLAND        CLOUDY    45  40  82 NW5       30.20R
SHERIDAN       CLOUDY    44  42  93 NE6       30.23S
BUFFALO        CLOUDY    42  41  96 MISG      30.23S
GILLETTE       CLOUDY    40  39  97 N13       30.21S FOG     WCI  32
NEWCASTLE      CLOUDY    46  39  76 S6        30.15R

$$
WYZ014>020-022>026-101>103-191600-
CENTRAL WYOMING

CITY           SKY/WX    TMP DP  RH WIND       PRES   REMARKS
BIG PINEY      CLOUDY    44  41  89 S6        30.16S
PINEDALE       CLOUDY    43  37  81 CALM      30.17R
DUBOIS         CLOUDY    39  36  87 SE8       30.17F WCI  34
LANDER         LGT RAIN  43  42  97 E5        30.17R VSB 1
RIVERTON       LGT RAIN  43  41  93 E7        30.19R VSB 1
CASPER         CLOUDY    41  41 100 N9        30.19S FOG
DOUGLAS        LGT RAIN  43  42  97 N8G18     30.18R

$$
WYZ021-027>030-104>119-191600-
SOUTHERN WYOMING

CITY           SKY/WX    TMP DP  RH WIND       PRES   REMARKS
EVANSTON       CLOUDY    46  42  86 E18G24    30.12R
KEMMERER       CLOUDY    41  37  87 E7        30.16R
FORT BRIDGER   CLOUDY    45  45  99 E10       30.16S
ROCK SPRINGS   CLOUDY    45  40  82 E16       30.13S
DIXON          PTSUNNY   48  38  67 CALM      30.10S
RAWLINS        CLOUDY    45  38  76 NE12      30.14S
SARATOGA       CLOUDY    48  37  66 NW3       30.12S
LARAMIE        CLOUDY    44  39  82 NE8       30.13R
CHEYENNE       RAIN      41  41 100 N18G28    30.11R FOG
TORRINGTON     HVY RAIN  42  42 100 N24G31    30.11R FOG
PINE BLUFFS    RAIN      41  41 100 N15       30.10R

$$




USA.gov is the U.S. government's official web portal to all federal, state and local government web resources and services.